Regional Weather Roundup
Issued by NWS Albany, NY

Home | Current Version | Previous Version | Graphics & Text | Print | Product List | Glossary On
Versions: 1 2 3 4 5 6 7 8 9 10 11 12 13 14 15 16 17 18 19 20 21 22 23 24 25 26 27 28 29 30 31 32 33 34 35 36 37 38 39 40 41 42 43 44 45 46 47 48 49 50
996
ASUS41 KALY 030810
RWRALY

NEW YORK STATE HOURLY WEATHER ROUNDUP
NATIONAL WEATHER SERVICE ALBANY NY
400 AM EDT TUE MAY 03 2016

NOTE: "FAIR" INDICATES FEW OR NO CLOUDS BELOW 12,000 FEET WITH NO
SIGNIFICANT WEATHER AND/OR NO OBSTRUCTIONS TO VISIBILITY.

NYZ032-033-038>043-046>054-057>066-NYZ062>081-082-084-030900-
EAST


CITY           SKY/WX    TMP DP  RH WIND       PRES   REMARKS
ALBANY         CLOUDY    47  44  90 N6        29.93S
GLENS FALLS    CLOUDY    46  43  89 CALM      29.93F
POUGHKEEPSIE   LGT RAIN  52  48  86 E5        29.88F
NEWBURGH       LGT RAIN  50  50 100 E12       29.89F FOG
MONTGOMERY     LGT RAIN  51  49  92 CALM      29.88S
WHITE PLAINS   LGT RAIN  52  51  97 E5        29.88S FOG
NEW YORK CITY  LGT RAIN  54  52  94 NE8       29.86F FOG
CENTRAL PARK   LGT RAIN  53  51  93 E5        29.89F FOG
$$

NYZ005>009-017-018-044>046-055-056-030900-
CENTRAL


CITY           SKY/WX    TMP DP  RH WIND       PRES   REMARKS
FULTON         FOG       39  36  89 CALM      29.95F VSB 1/4
SYRACUSE       CLOUDY    40  40 100 NW3       29.94F
ROME           FOG       42  42 100 W3        29.95F VSB 1/2
ELMIRA         CLOUDY    46  42  86 CALM      29.92S
BINGHAMTON     CLOUDY    42  39  89 NE7       29.89F
MONTICELLO     CLOUDY    46  46 100 CALM      29.88S
$$

NYZ026>034-041>043-087-030900-
NORTH


CITY           SKY/WX    TMP DP  RH WIND       PRES   REMARKS
WATERTOWN      FOG       38  38 100 CALM      29.97R VSB<1/4
FORT DRUM      NOT AVBL
MASSENA        FOG       34  32  92 CALM      29.98S VSB 1/2
SARANAC LAKE   CLOUDY    39  37  92 CALM      29.91S
PLATTSBURGH    NOT AVBL
$$

NYZ001>004-010>016-019>021-085-030900-
WEST


CITY           SKY/WX    TMP DP  RH WIND       PRES   REMARKS
NIAGARA FALLS  PTCLDY    38  34  85 CALM      29.94F
BUFFALO        MOCLDY    41  39  93 NE6       29.94F
DUNKIRK        FOG       41  41 100 CALM      29.93S VSB 1/4
JAMESTOWN      CLOUDY    43  39  87 N5        29.89S
WELLSVILLE     CLOUDY    42  40  92 E3        29.90F
ROCHESTER      CLEAR     38  37  97 CALM      29.96S
PENN YAN       PTCLDY    41  39  93 CALM      29.94S FOG
$$

             KEY
       WCI = WIND CHILL INDEX
       VSB = VISIBILITY
       HX  = HEAT INDEX
$$




USA.gov is the U.S. government's official web portal to all federal, state and local government web resources and services.